Sheldon, IA

9:57 AM CST on February 27, 2017 (GMT -0600)
Sheldon Municipal

Weather History for KSHL - December, 2012

Change the Weather History Date:

Saturday, December 29, 2012

  Actual Average Record
Temperature  
Mean Temperature 8 °F -  
Max Temperature 14 °F 25 °F 57 °F (1999)
Min Temperature 3 °F 8 °F -13 °F (1990)
Degree Days  
Heating Degree Days 56    
Moisture  
Dew Point 6 °F    
Average Humidity 91    
Maximum Humidity 100    
Minimum Humidity 85    
Precipitation  
Precipitation 0.00 in - - ()
Sea Level Pressure  
Sea Level Pressure 30.10 in    
Wind  
Wind Speed 8 mph (WSW)    
Max Wind Speed 13 mph    
Max Gust Speed 15 mph    
Visibility 5 miles    
Events Fog , Rain , Snow    
Averages and records for this station are not official NWS values.
T = Trace of Precipitation, MM = Missing Value Source: NWS Daily Summary

Daily Weather History Graph

Daily Weather History Graph

Search for Another Location

Airport or City:

Trip Planner

Search our weather history database for the weather conditions in past years. The results will help you decide how hot, cold, wet, or windy it might be!

Date:

Astronomy

Dec. 29, 2012 Rise Set
Actual Time 7:55 AM CST 4:56 PM CST
Civil Twilight 7:22 AM CST 5:28 PM CST
Nautical Twilight 6:46 AM CST 6:04 PM CST
Astronomical Twilight 6:12 AM CST 6:39 PM CST
Moon 6:33 PM CST (12/29) 8:26 AM CST (12/29)
Length of Visible Light 10h 06m
Length of Day
9h 01m
Full, 98% of the Moon is Illuminated
Dec 29
Full
Jan 4
Last Quarter
Jan 11
New
Jan 18
First Quarter
Jan 26
Full

Hourly Weather History & Observations

Time (CST) Temp. Windchill Dew Point Humidity Pressure Visibility Wind Dir Wind Speed Gust Speed Precip Events Conditions
12:15 AM 10.4 °F -1.5 °F 8.6 °F 92% 30.05 in 5.0 mi NW 8.1 mph - N/A Rain Light Freezing Rain
12:35 AM 10.4 °F -1.5 °F 8.6 °F 92% 30.06 in 5.0 mi NW 8.1 mph - N/A Rain Light Freezing Rain
12:55 AM 10.4 °F -0.4 °F 8.6 °F 92% 30.05 in 4.0 mi WNW 6.9 mph - N/A Rain Light Freezing Rain
1:15 AM 10.4 °F 0.8 °F 8.6 °F 92% 30.05 in 3.0 mi WNW 5.8 mph - N/A Rain Light Freezing Rain
1:35 AM 10.4 °F 0.8 °F 8.6 °F 92% 30.05 in 3.0 mi WNW 5.8 mph - N/A Rain Light Freezing Rain
1:55 AM 10.4 °F -2.4 °F 8.6 °F 92% 30.05 in 5.0 mi WNW 9.2 mph - N/A Rain Light Freezing Rain
2:15 AM 12.2 °F 0.7 °F 10.4 °F 92% 30.06 in 5.0 mi WNW 8.1 mph - N/A Rain Light Freezing Rain
2:35 AM 12.2 °F 0.7 °F 10.4 °F 92% 30.06 in 6.0 mi WNW 8.1 mph 15.0 mph N/A   Light Freezing Rain
2:55 AM 12.2 °F -1.0 °F 10.4 °F 92% 30.06 in 6.0 mi WNW 10.4 mph - N/A   Light Freezing Rain
3:15 AM 12.2 °F -1.0 °F 12.2 °F 100% 30.06 in 7.0 mi WNW 10.4 mph - N/A   Light Freezing Rain
3:35 AM 12.2 °F -1.0 °F 10.4 °F 92% 30.07 in 7.0 mi WNW 10.4 mph - N/A   Light Freezing Rain
3:55 AM 12.2 °F 1.7 °F 10.4 °F 92% 30.06 in 7.0 mi WNW 6.9 mph - N/A   Light Freezing Rain
4:15 AM 12.2 °F -0.2 °F 10.4 °F 92% 30.07 in 6.0 mi West 9.2 mph - N/A   Light Freezing Rain
4:35 AM 12.2 °F -1.0 °F 10.4 °F 92% 30.08 in 5.0 mi WNW 10.4 mph - N/A Rain Light Freezing Rain
4:55 AM 12.2 °F 0.7 °F 10.4 °F 92% 30.08 in 6.0 mi WNW 8.1 mph 15.0 mph N/A   Light Freezing Rain
5:15 AM 10.4 °F -4.8 °F 8.6 °F 92% 30.08 in 6.0 mi West 12.7 mph - N/A Rain Light Freezing Rain
5:35 AM 10.4 °F -3.3 °F 8.6 °F 92% 30.08 in 6.0 mi West 10.4 mph - N/A Snow Light Snow
6:15 AM 10.4 °F -3.3 °F 8.6 °F 92% 30.09 in 4.0 mi West 10.4 mph - N/A Snow Light Snow
6:35 AM 10.4 °F -0.4 °F 8.6 °F 92% 30.08 in 5.0 mi West 6.9 mph - N/A Rain Light Freezing Rain
6:55 AM 10.4 °F -2.4 °F 8.6 °F 92% 30.09 in 3.0 mi West 9.2 mph - N/A   Light Freezing Rain
7:15 AM 10.4 °F -3.3 °F 8.6 °F 92% 30.09 in 4.0 mi West 10.4 mph - N/A Rain Light Freezing Rain
7:35 AM 8.6 °F -5.5 °F 6.8 °F 92% 30.09 in 2.5 mi West 10.4 mph - N/A Snow Light Snow
7:55 AM 8.6 °F -2.6 °F 6.8 °F 92% 30.08 in 2.0 mi SW 6.9 mph - N/A Snow Light Snow
8:15 AM 8.6 °F -6.3 °F 6.8 °F 92% 30.10 in 1.0 mi WSW 11.5 mph - N/A Rain Light Freezing Rain
8:35 AM 8.6 °F -6.3 °F 5.0 °F 85% 30.11 in 1.0 mi West 11.5 mph - N/A Snow Light Snow
8:55 AM 6.8 °F -6.9 °F 5.0 °F 92% 30.11 in 0.8 mi West 9.2 mph - N/A Snow Light Snow
9:15 AM 6.8 °F -6.9 °F 5.0 °F 92% 30.11 in 0.5 mi West 9.2 mph - N/A Snow Light Snow
9:35 AM 6.8 °F -4.8 °F 5.0 °F 92% 30.11 in 0.8 mi WSW 6.9 mph - N/A Snow Light Snow
9:55 AM 6.8 °F -5.9 °F 5.0 °F 92% 30.12 in 0.5 mi SW 8.1 mph - N/A Rain Light Freezing Rain
10:15 AM 6.8 °F -5.9 °F 3.2 °F 85% 30.12 in 1.2 mi WSW 8.1 mph - N/A Snow Light Snow
10:35 AM 6.8 °F -5.9 °F 3.2 °F 85% 30.12 in 2.0 mi WSW 8.1 mph - N/A Snow Light Snow
10:55 AM 6.8 °F -6.9 °F 5.0 °F 92% 30.12 in 3.0 mi WSW 9.2 mph - N/A Snow Light Snow
11:15 AM 6.8 °F -4.8 °F 5.0 °F 92% 30.11 in 5.0 mi WSW 6.9 mph - N/A Rain Light Freezing Rain
11:35 AM 6.8 °F -5.9 °F 5.0 °F 92% 30.11 in 6.0 mi WSW 8.1 mph - N/A   Light Freezing Rain
11:55 AM 6.8 °F -7.8 °F 5.0 °F 92% 30.10 in 5.0 mi WSW 10.4 mph - N/A Rain Light Freezing Rain
12:15 PM 6.8 °F -4.8 °F 5.0 °F 92% 30.10 in 7.0 mi WSW 6.9 mph - N/A   Light Freezing Rain
12:55 PM 8.6 °F -3.7 °F 5.0 °F 85% 30.09 in 9.0 mi West 8.1 mph - N/A   Overcast
1:15 PM 8.6 °F -7.0 °F 5.0 °F 85% 30.09 in 8.0 mi West 12.7 mph - N/A   Overcast
1:35 PM 8.6 °F -6.3 °F 6.8 °F 92% 30.09 in 7.0 mi West 11.5 mph - N/A Snow Light Snow
1:55 PM 8.6 °F -3.7 °F 6.8 °F 92% 30.08 in 6.0 mi West 8.1 mph - N/A   Overcast
2:15 PM 10.4 °F -1.5 °F 6.8 °F 85% 30.09 in 6.0 mi West 8.1 mph - N/A   Overcast
2:35 PM 10.4 °F 2.2 °F 8.6 °F 92% 30.09 in 3.0 mi West 4.6 mph - N/A Snow Light Snow
2:55 PM 12.2 °F 2.9 °F 10.4 °F 92% 30.09 in 3.0 mi West 5.8 mph - N/A   Overcast
3:15 PM 12.2 °F -1.8 °F 12.2 °F 100% 30.10 in 3.0 mi West 11.5 mph - N/A   Overcast
3:35 PM 12.2 °F -0.2 °F 12.2 °F 100% 30.11 in 4.0 mi West 9.2 mph - N/A   Overcast
3:55 PM 14.0 °F 2.9 °F 12.2 °F 93% 30.11 in 3.0 mi West 8.1 mph - N/A   Overcast
4:15 PM 14.0 °F 1.2 °F 12.2 °F 93% 30.11 in 4.0 mi West 10.4 mph - N/A   Overcast
4:35 PM 12.2 °F 0.7 °F 12.2 °F 100% 30.12 in 5.0 mi West 8.1 mph - N/A   Overcast
5:15 PM 10.4 °F 0.8 °F 8.6 °F 92% 30.11 in 4.0 mi SW 5.8 mph - N/A   Overcast
5:35 PM 8.6 °F 2.0 °F 5.0 °F 85% 30.11 in 1.5 mi SW 3.5 mph - N/A   Overcast
5:55 PM 6.8 °F -2.0 °F 5.0 °F 92% 30.12 in 0.5 mi SW 4.6 mph - N/A Fog Light Freezing Fog
6:15 PM 5.0 °F -5.6 °F 3.2 °F 92% 30.12 in 0.8 mi SW 5.8 mph - N/A   Overcast
6:35 PM 6.8 °F -3.5 °F 3.2 °F 85% 30.13 in 0.2 mi SW 5.8 mph - N/A Fog Light Freezing Fog
6:55 PM 6.8 °F -4.8 °F 5.0 °F 92% 30.12 in 3.0 mi SW 6.9 mph - N/A   Partly Cloudy
7:15 PM 6.8 °F -3.5 °F 3.2 °F 85% 30.13 in 5.0 mi SW 5.8 mph - N/A Snow Light Snow
7:35 PM 5.0 °F -6.9 °F 1.4 °F 85% 30.13 in 5.0 mi SW 6.9 mph - N/A Snow Light Snow
7:55 PM 5.0 °F -6.9 °F 3.2 °F 92% 30.14 in 6.0 mi SW 6.9 mph - N/A Snow Light Snow
8:15 PM 3.2 °F -9.1 °F 1.4 °F 92% 30.15 in 6.0 mi SW 6.9 mph - N/A Snow Light Snow
8:35 PM 5.0 °F -5.6 °F 1.4 °F 85% 30.14 in 6.0 mi SW 5.8 mph - N/A Snow Light Snow
8:55 PM 5.0 °F -5.6 °F 3.2 °F 92% 30.14 in 7.0 mi SW 5.8 mph - N/A Snow Light Snow
9:15 PM 6.8 °F -3.5 °F 5.0 °F 92% 30.14 in 7.0 mi SW 5.8 mph - N/A   Clear
9:35 PM 5.0 °F -6.9 °F 3.2 °F 92% 30.14 in 7.0 mi SW 6.9 mph - N/A Snow Light Snow
9:55 PM 5.0 °F -5.6 °F 1.4 °F 85% 30.14 in 6.0 mi SW 5.8 mph - N/A   Clear
10:15 PM 5.0 °F -4.1 °F 1.4 °F 85% 30.14 in 7.0 mi SW 4.6 mph - N/A Snow Light Snow
10:35 PM 5.0 °F -5.6 °F 3.2 °F 92% 30.14 in 7.0 mi SW 5.8 mph - N/A   Clear
10:55 PM 3.2 °F - 1.4 °F 92% 30.15 in 7.0 mi Calm Calm - N/A   Clear
11:15 PM 5.0 °F -4.1 °F 1.4 °F 85% 30.16 in 7.0 mi SW 4.6 mph - N/A Snow Light Snow
11:35 PM 3.2 °F - 1.4 °F 92% 30.16 in 7.0 mi Calm Calm - N/A   Clear
11:55 PM 3.2 °F - -0.4 °F 85% 30.15 in 7.0 mi Calm Calm - N/A   Clear